Wind_Speed
53 53 50 49 48 50 52 52 51 50 50 52 56 59 60 62 65 73 78 85 82 79 78 77 75 72 69 68 62 58 55 55 50 52 52 48 44 42 44 45 50 47 52 54 56 57 59
50 51 51 49 49 51 50 50 50 49 49 51 55 52 52 52 58 65 72 77 77 75 75 75 75 73 69 65 60 61 61 58 54 53 52 53 55 48 47 47 48 51 49 52 53 56 59
50 48 48 50 49 49 47 48 49 48 47 51 54 49 46 48 57 64 71 74 74 72 71 74 74 75 73 66 66 65 63 62 61 59 58 59 61 58 53 53 49 49 53 53 51 55 58
49 49 44 44 45 45 45 46 47 47 46 48 51 50 46 45 55 64 73 74 72 73 69 70 73 73 72 69 68 66 63 66 63 64 61 60 61 59 53 57 53 49 50 52 53 56 58
46 46 44 40 41 43 43 45 45 46 46 48 48 49 47 42 52 64 73 78 75 74 74 69 69 69 71 72 71 71 67 66 68 65 65 66 67 60 58 56 55 51 50 54 54 58 58
52 41 38 37 37 37 40 43 41 45 47 49 48 49 47 43 46 59 68 75 78 71 72 72 73 74 76 74 72 71 70 71 71 70 70 70 67 64 59 64 57 58 53 55 54 56 55
54 46 41 37 38 39 38 37 40 43 48 52 52 51 50 48 43 49 62 68 76 78 75 74 68 70 70 71 73 73 76 80 76 75 74 72 69 66 70 70 67 60 57 55 55 56 58
53 47 45 46 44 41 44 43 43 45 47 52 55 56 54 52 50 45 49 65 72 71 74 77 75 73 74 75 77 77 78 78 79 82 82 75 73 75 74 72 69 65 63 60 60 60 58
55 50 47 48 53 56 57 52 51 50 49 52 55 57 60 58 54 47 49 51 58 69 76 78 79 79 84 82 79 80 81 80 83 83 84 85 81 79 75 78 76 72 72 69 65 66 62
56 49 48 52 57 60 65 69 66 58 59 55 57 57 59 62 61 54 55 53 48 51 51 63 62 63 68 72 76 85 87 88 88 90 89 87 89 90 88 85 83 80 80 77 71 68 63
67 60 59 61 68 70 69 70 73 74 66 63 60 61 59 56 60 65 67 54 50 49 44 45 47 50 52 55 57 63 70 73 76 80 83 83 86 91 86 90 90 80 80 77 75 71 67
76 71 75 70 61 55 52 50 57 69 72 70 68 62 64 58 55 62 63 61 58 53 42 41 43 46 48 51 56 61 65 69 76 79 79 80 79 81 85 87 87 84 83 83 80 77 62
83 77 74 63 55 48 45 44 45 51 58 67 71 65 62 57 60 62 57 58 58 51 48 45 45 47 50 53 55 59 66 73 77 76 73 73 72 76 79 84 85 86 88 88 86 79 61
88 83 69 58 50 43 40 39 38 42 47 55 63 67 63 70 65 59 53 53 51 49 50 46 44 46 51 50 55 61 69 74 73 71 71 71 72 75 77 79 82 81 85 83 86 78 76
89 82 67 55 48 42 38 36 35 36 42 48 52 65 71 75 61 59 57 50 49 52 48 46 45 49 52 53 56 64 67 66 65 68 72 73 72 77 79 82 83 85 85 91 89 83 83
89 79 65 54 49 42 36 32 31 33 38 43 50 61 72 73 67 66 59 53 53 48 45 44 46 46 47 51 55 54 56 58 60 55 55 56 55 59 64 68 74 79 78 75 72 72 68
89 78 65 55 48 41 32 25 24 28 34 38 44 51 59 64 67 69 62 62 57 48 44 44 44 44 45 45 41 44 45 45 40 40 34 28 27 32 37 41 45 46 44 45 50 52 50
86 77 64 56 46 37 27 20 15 18 24 30 35 44 51 46 54 64 66 65 54 51 46 44 43 41 38 30 33 33 28 26 27 31 27 14 13 17 20 20 24 26 29 29 35 43 44
84 74 63 54 43 30 19 13 9 13 17 25 31 39 44 49 51 63 71 64 59 55 48 44 40 32 25 23 23 16 8 20 11 10 6 2 6 9 11 14 6 14 18 20 26 36 43
80 71 60 52 40 22 11 7 12 15 20 26 27 28 31 41 46 55 60 66 63 55 49 40 31 23 16 13 2 24 20 9 16 25 33 34 31 32 34 37 32 12 16 25 30 34 38
77 68 59 50 36 18 7 6 9 16 21 22 23 25 28 35 40 45 52 56 50 46 42 36 30 12 16 23 31 29 22 25 35 37 42 45 42 39 40 44 39 39 29 29 41 45 48
76 66 58 49 33 16 5 5 10 13 16 19 24 32 38 40 39 44 45 48 46 46 43 37 23 30 26 23 31 34 36 29 31 41 42 40 37 40 31 30 32 35 47 44 49 51 48
74 63 58 48 34 17 7 6 7 9 15 20 30 37 42 42 40 44 49 48 51 51 45 32 24 30 22 22 34 30 24 35 32 40 37 35 37 34 28 27 27 28 43 47 39 38 47
72 62 55 47 33 18 10 5 4 6 11 15 28 34 37 41 44 47 51 54 54 48 39 31 26 27 26 30 38 32 25 20 36 38 37 34 36 34 32 32 32 21 20 18 34 28 22
69 62 52 43 32 16 8 5 5 8 11 21 26 29 37 43 45 52 57 56 50 45 37 32 29 31 32 31 27 36 25 26 35 39 38 38 34 36 32 29 17 24 25 26 20 18 29
66 58 52 42 30 16 7 7 7 13 19 25 26 34 41 46 53 59 58 54 49 42 37 33 29 32 35 30 32 24 28 24 24 35 33 31 29 32 31 29 24 13 27 32 27 18 10
63 55 50 41 28 16 9 8 10 16 23 25 29 39 48 54 61 62 57 52 46 40 35 33 28 29 34 34 38 34 31 28 26 31 23 29 27 25 28 26 29 29 25 26 20 7 4
60 53 47 40 27 16 11 11 13 17 24 26 34 44 52 60 65 61 55 50 46 41 34 30 27 24 24 26 37 36 32 30 28 36 23 28 27 26 27 28 31 23 23 24 20 16 9
58 51 44 39 28 17 13 15 16 20 25 28 40 47 54 64 63 58 53 49 46 41 34 30 27 25 25 24 21 23 24 27 32 34 34 28 32 28 29 23 20 20 27 28 25 25 18
Wind_Direction
305 300 295 288 283 280 276 272 268 264 260 253 252 252 257 256 245 239 235 234 233 234 236 238 242 246 250 254 257 258 256 260 264 272 276 271 264 265 265 266 257 254 253 255 259 259 251
306 299 295 288 283 278 276 271 266 262 256 252 255 259 265 257 241 229 224 227 228 231 234 236 241 244 249 251 256 255 256 259 260 267 272 276 270 266 264 264 265 256 258 257 257 258 254
310 305 298 291 284 279 274 272 266 260 254 252 254 260 267 254 235 226 220 222 225 230 235 237 239 245 249 251 253 254 255 258 261 267 270 270 266 265 265 265 266 263 257 259 257 258 254
314 306 298 293 286 280 275 271 266 260 250 250 254 258 263 251 232 223 221 221 225 229 235 239 241 244 247 249 252 255 255 256 259 268 268 269 268 266 265 263 265 265 258 257 258 256 254
316 308 304 298 287 281 278 273 267 258 252 245 248 252 258 252 235 225 222 222 226 230 234 239 243 245 250 250 250 254 255 257 259 264 266 270 267 263 263 265 265 266 258 254 255 257 260
322 312 308 304 298 290 284 275 268 258 248 246 244 247 251 252 241 229 225 228 228 232 236 240 243 247 248 252 253 253 256 257 258 262 265 266 262 265 268 267 264 261 260 258 260 264 268
324 318 312 302 299 296 285 277 271 261 252 243 243 242 245 248 246 237 229 230 230 233 233 236 242 246 247 250 250 252 257 258 259 260 264 263 262 264 265 263 264 264 263 261 260 264 266
325 317 313 311 302 292 288 280 269 266 258 249 242 239 241 244 246 243 238 231 234 234 236 237 241 243 248 251 255 258 260 259 260 258 261 263 263 261 262 263 264 265 261 260 258 261 263
325 318 314 308 304 299 292 277 269 262 257 254 248 240 236 238 242 245 243 237 237 235 235 240 243 247 249 253 256 258 258 260 259 259 257 263 261 261 262 263 262 261 262 260 257 258 260
322 311 299 291 290 286 281 275 269 258 255 248 246 243 239 235 235 238 243 243 242 240 239 243 247 250 255 257 256 257 259 261 264 265 264 263 262 260 260 262 263 264 261 259 258 257 260
325 318 304 296 291 286 276 266 261 259 249 245 240 239 238 236 232 233 238 242 243 244 244 247 251 251 254 259 259 259 262 265 267 268 267 265 260 260 260 260 261 259 258 257 256 257 258
329 322 317 312 303 293 283 270 258 253 249 240 236 232 233 231 233 235 235 237 240 243 247 249 252 256 258 260 262 264 265 269 272 271 268 266 262 260 259 257 259 257 258 256 257 257 260
331 327 323 316 308 297 287 276 263 252 247 238 233 223 228 229 231 233 234 235 237 242 247 247 250 256 261 265 269 272 275 279 277 274 271 267 264 260 259 258 258 257 256 254 255 257 260
333 332 327 320 311 301 289 277 265 253 243 236 232 222 219 227 224 229 232 236 236 237 242 245 253 260 263 270 277 276 279 279 279 281 278 275 269 266 262 262 259 258 256 256 257 257 255
335 334 330 324 316 308 296 280 264 249 242 235 228 221 217 226 218 223 226 230 236 237 243 249 256 261 268 275 279 279 281 284 284 283 281 278 272 267 265 262 262 261 260 257 256 256 254
337 338 333 329 323 316 301 282 264 246 235 230 223 219 217 223 215 222 223 224 231 234 240 249 256 262 270 277 278 283 284 291 293 289 284 276 269 265 261 259 256 255 255 254 253 251 251
339 339 336 334 330 321 304 281 259 238 232 226 224 221 219 220 214 220 222 226 228 231 239 247 252 262 271 277 280 282 301 303 303 301 298 292 281 271 262 256 252 249 246 243 239 235 233
340 340 338 339 335 324 305 275 249 235 230 224 219 219 220 217 215 216 224 225 226 230 235 243 251 262 269 269 283 307 309 297 294 292 286 285 265 256 250 244 242 231 225 224 225 212 204
342 341 340 343 337 328 310 278 221 199 216 218 213 215 216 214 212 219 225 224 225 228 232 239 250 251 249 276 300 326 207 285 265 295 326 104 150 168 158 140 150 204 209 213 209 203 188
342 341 343 344 339 333 318 274 189 175 190 200 211 214 217 213 216 213 216 219 220 224 228 236 228 225 262 269 342 147 157 176 128 115 101 98 98 99 98 96 99 114 163 169 169 166 157
343 341 345 346 342 340 336 283 213 188 192 190 198 206 208 214 212 211 210 214 214 217 221 208 206 197 220 141 141 146 150 130 107 109 99 94 83 86 90 100 111 118 133 151 147 145 149
342 343 346 346 343 345 340 296 242 210 200 190 185 191 198 199 200 195 197 198 195 196 191 192 177 182 168 168 154 157 136 128 122 108 103 104 101 96 93 106 114 127 130 136 145 144 134
341 345 344 345 343 342 348 299 289 236 208 191 180 187 189 191 186 190 184 182 185 182 182 176 171 175 188 200 171 167 167 137 126 126 122 118 115 112 115 103 121 131 139 134 139 154 149
340 344 344 343 341 335 345 307 291 221 212 191 188 192 187 182 181 182 178 177 176 176 174 169 177 186 196 189 179 186 186 164 146 134 138 136 133 134 120 113 119 124 137 150 158 163 166
339 340 343 342 337 325 325 275 222 210 196 189 194 193 184 181 178 174 172 171 172 174 171 173 176 184 193 199 217 201 210 180 166 157 160 150 154 149 134 138 133 146 114 107 112 181 172
338 341 340 340 331 315 288 254 218 199 195 193 189 181 181 177 172 171 169 169 172 174 174 171 176 181 187 199 214 217 204 216 201 169 174 165 170 173 154 148 148 168 159 159 171 202 205
337 341 338 335 329 305 259 233 217 207 200 201 193 183 181 175 171 169 170 169 170 176 176 173 174 184 181 188 202 214 213 221 221 210 191 200 194 194 187 181 175 176 188 201 194 227 110
337 340 338 331 326 301 252 226 220 208 205 202 196 187 181 175 171 170 170 170 172 177 177 179 174 186 190 183 196 212 220 231 232 217 221 211 208 217 222 206 198 211 215 218 240 253 288
337 339 339 328 319 295 243 224 211 207 201 198 194 193 183 176 175 172 172 173 175 179 177 179 178 185 190 197 201 205 214 217 229 225 227 235 233 237 226 227 231 247 259 267 273 266 273
Height
10544 10536 10533 10529 10526 10522 10520 10519 10519 10519 10521 10523 10527 10534 10537 10538 10539 10545 10554 10563 10574 10585 10594 10601 10607 10612 10618 10620 10623 10628 10625 10631 10632 10632 10634 10636 10638 10641 10641 10642 10643 10651 10647 10650 10648 10648 10653
10530 10523 10517 10513 10510 10505 10504 10503 10503 10505 10507 10510 10512 10517 10518 10518 10522 10529 10539 10550 10561 10571 10580 10586 10592 10599 10604 10606 10615 10613 10611 10616 10621 10622 10622 10624 10625 10629 10629 10629 10631 10635 10639 10639 10639 10636 10639
10514 10508 10502 10497 10493 10489 10489 10488 10488 10490 10493 10497 10500 10502 10504 10505 10509 10516 10526 10537 10548 10559 10567 10573 10578 10584 10589 10596 10596 10600 10601 10603 10605 10608 10611 10611 10613 10616 10618 10616 10619 10622 10626 10626 10629 10624 10627
10502 10493 10489 10483 10479 10477 10475 10473 10474 10476 10479 10483 10487 10490 10493 10494 10498 10506 10515 10524 10533 10544 10553 10560 10565 10570 10573 10581 10583 10587 10589 10591 10592 10592 10595 10595 10598 10601 10604 10604 10607 10609 10612 10614 10609 10608 10611
10493 10481 10474 10470 10467 10463 10462 10461 10461 10463 10466 10468 10473 10477 10481 10483 10488 10495 10504 10512 10520 10530 10540 10546 10552 10555 10560 10566 10570 10571 10573 10578 10580 10579 10577 10581 10583 10587 10589 10590 10593 10595 10595 10594 10595 10593 10595
10479 10473 10464 10458 10454 10452 10450 10449 10450 10450 10452 10456 10460 10464 10469 10473 10477 10484 10491 10500 10508 10517 10527 10533 10538 10541 10545 10548 10555 10560 10560 10560 10563 10565 10565 10564 10566 10571 10575 10570 10577 10577 10583 10581 10583 10581 10582
10466 10457 10452 10449 10444 10440 10438 10438 10437 10438 10439 10442 10447 10451 10457 10461 10467 10473 10480 10487 10496 10504 10510 10516 10526 10525 10527 10531 10537 10544 10547 10547 10547 10548 10547 10548 10553 10560 10552 10553 10559 10565 10567 10569 10568 10566 10565
10457 10448 10441 10433 10429 10427 10423 10422 10423 10424 10426 10427 10431 10437 10443 10449 10454 10463 10470 10474 10479 10492 10497 10504 10510 10512 10514 10519 10522 10526 10527 10530 10531 10530 10529 10533 10539 10536 10537 10541 10544 10547 10549 10551 10552 10549 10552
10444 10436 10428 10422 10414 10405 10400 10401 10403 10405 10409 10412 10416 10421 10428 10435 10443 10453 10455 10460 10468 10477 10483 10488 10496 10501 10500 10508 10509 10507 10510 10511 10510 10513 10513 10515 10519 10517 10521 10521 10524 10528 10529 10531 10533 10530 10535
10431 10424 10415 10403 10393 10386 10379 10373 10373 10382 10385 10391 10397 10404 10411 10420 10431 10439 10441 10448 10458 10463 10472 10477 10482 10491 10491 10497 10499 10493 10490 10491 10492 10492 10492 10499 10500 10496 10499 10506 10502 10507 10505 10507 10514 10515 10524
10410 10402 10389 10379 10365 10354 10346 10345 10343 10345 10358 10367 10376 10384 10393 10406 10416 10420 10421 10440 10448 10451 10463 10469 10474 10476 10478 10480 10483 10482 10477 10474 10473 10470 10469 10473 10474 10471 10479 10481 10475 10488 10481 10488 10492 10498 10507
10390 10378 10361 10346 10332 10322 10316 10314 10314 10317 10324 10338 10349 10365 10372 10387 10401 10403 10414 10425 10433 10442 10457 10461 10462 10463 10466 10468 10467 10466 10465 10462 10457 10449 10448 10447 10448 10451 10454 10454 10456 10462 10464 10466 10469 10475 10496
10371 10357 10339 10322 10310 10301 10295 10292 10293 10296 10301 10311 10324 10345 10359 10374 10382 10387 10403 10413 10423 10437 10443 10451 10454 10455 10455 10454 10454 10452 10447 10441 10434 10427 10426 10425 10428 10429 10431 10430 10433 10435 10438 10441 10444 10457 10478
10352 10335 10320 10304 10293 10285 10278 10275 10275 10277 10283 10292 10303 10328 10344 10351 10361 10380 10393 10403 10417 10425 10430 10440 10446 10446 10443 10444 10442 10437 10431 10422 10415 10410 10406 10405 10406 10402 10407 10406 10406 10411 10412 10422 10422 10440 10445
10337 10321 10304 10290 10278 10270 10263 10261 10261 10263 10270 10277 10290 10308 10321 10328 10353 10368 10380 10396 10405 10412 10423 10431 10435 10435 10435 10434 10430 10421 10415 10409 10404 10394 10384 10379 10379 10376 10375 10373 10376 10382 10388 10393 10396 10407 10414
10323 10308 10291 10278 10266 10256 10249 10245 10247 10251 10257 10265 10276 10289 10309 10316 10339 10353 10370 10386 10392 10405 10415 10422 10424 10426 10426 10424 10418 10413 10406 10400 10388 10374 10360 10352 10352 10349 10349 10351 10354 10353 10358 10365 10373 10386 10396
10311 10296 10281 10268 10256 10246 10239 10235 10237 10242 10248 10257 10267 10281 10295 10307 10327 10342 10364 10370 10383 10398 10408 10412 10416 10418 10418 10415 10412 10405 10401 10388 10374 10357 10348 10341 10338 10336 10334 10335 10335 10340 10346 10352 10357 10367 10375
10305 10288 10274 10262 10249 10240 10233 10230 10233 10238 10244 10253 10263 10274 10285 10300 10321 10341 10348 10359 10379 10391 10399 10404 10409 10410 10411 10411 10404 10403 10393 10381 10370 10360 10350 10342 10335 10330 10329 10329 10330 10334 10340 10346 10350 10354 10362
10300 10283 10270 10258 10245 10237 10232 10231 10232 10238 10243 10250 10258 10267 10279 10294 10311 10325 10332 10353 10369 10380 10391 10397 10401 10404 10407 10404 10402 10398 10390 10383 10375 10365 10354 10345 10337 10331 10329 10327 10331 10334 10338 10342 10350 10358 10363
10296 10279 10268 10255 10245 10238 10231 10231 10234 10236 10245 10248 10255 10266 10275 10288 10298 10314 10328 10341 10357 10372 10384 10390 10395 10401 10400 10400 10400 10401 10394 10388 10378 10367 10359 10351 10345 10341 10337 10336 10342 10344 10345 10348 10354 10364 10375
10294 10276 10265 10254 10246 10240 10235 10233 10235 10236 10243 10249 10257 10265 10280 10289 10296 10307 10320 10334 10351 10365 10376 10384 10391 10395 10397 10398 10399 10400 10396 10391 10382 10376 10368 10363 10362 10360 10358 10357 10360 10360 10362 10360 10365 10372 10382
10289 10274 10263 10252 10247 10243 10239 10239 10238 10239 10243 10249 10257 10266 10272 10278 10289 10299 10314 10329 10343 10358 10370 10377 10385 10392 10393 10396 10397 10399 10395 10393 10386 10383 10378 10373 10372 10372 10373 10373 10377 10377 10377 10380 10383 10386 10396
10285 10274 10260 10252 10245 10242 10240 10239 10240 10243 10245 10250 10257 10264 10271 10279 10290 10301 10310 10325 10340 10352 10362 10372 10379 10387 10389 10393 10395 10398 10398 10394 10393 10389 10387 10384 10382 10383 10383 10384 10388 10391 10392 10394 10397 10399 10408
10283 10273 10261 10251 10246 10240 10240 10239 10240 10242 10245 10250 10255 10263 10272 10280 10287 10298 10310 10323 10337 10350 10361 10369 10376 10382 10386 10389 10392 10396 10396 10398 10396 10396 10393 10389 10392 10392 10391 10395 10398 10399 10400 10406 10409 10414 10419
10283 10267 10263 10255 10248 10244 10241 10241 10243 10244 10246 10252 10257 10263 10271 10279 10288 10299 10311 10324 10338 10349 10355 10364 10372 10377 10382 10386 10390 10393 10398 10397 10399 10398 10398 10396 10398 10399 10399 10403 10406 10407 10410 10414 10416 10416 10426
10283 10270 10257 10254 10249 10245 10242 10241 10243 10245 10248 10251 10258 10263 10271 10280 10289 10300 10311 10324 10336 10344 10353 10362 10368 10372 10377 10382 10387 10392 10397 10401 10401 10403 10403 10403 10404 10405 10407 10409 10413 10413 10416 10417 10421 10422 10427
10281 10269 10257 10251 10248 10244 10241 10241 10243 10244 10247 10251 10257 10264 10272 10280 10289 10299 10311 10323 10333 10342 10351 10359 10365 10370 10374 10380 10386 10388 10394 10398 10401 10402 10404 10407 10408 10408 10413 10414 10416 10418 10421 10423 10425 10428 10430
10278 10267 10255 10246 10244 10241 10239 10239 10241 10244 10248 10252 10259 10264 10272 10281 10289 10298 10310 10321 10330 10340 10348 10356 10362 10368 10373 10376 10382 10386 10390 10393 10398 10401 10402 10405 10406 10410 10415 10419 10420 10421 10424 10426 10429 10430 10434
10274 10263 10254 10243 10240 10238 10237 10235 10239 10243 10247 10253 10259 10264 10271 10282 10291 10301 10310 10319 10329 10338 10347 10354 10359 10365 10372 10377 10380 10383 10386 10390 10395 10399 10402 10405 10406 10409 10413 10417 10422 10426 10427 10427 10430 10433 10436